CXA110 HI25-PHTO

Flight info

Callsign CXA110
Flight time 0h 12m
Altitude 3500
Route VFR
Aircraft TBM9/L-VGD/A

Departure

Time 2026-05-01 12:34
Airport Kaalaiki Airstrip (HI25)

Arrival

Time 2026-05-01 12:46
Airport Hilo International Airport (PHTO)
Time Latitude Longitude Altitude Speed Heading
2026-05-01 12:28 19.12128 -155.57968 1990 ft 0 kts 227°
2026-05-01 12:28 19.12127 -155.57972 1990 ft 14 kts 108°
2026-05-01 12:29 19.12199 -155.57892 1979 ft 45 kts 43°
2026-05-01 12:29 19.12545 -155.57633 1905 ft 69 kts 36°
2026-05-01 12:29 19.13313 -155.57012 1791 ft 70 kts 36°
2026-05-01 12:30 19.13587 -155.56702 1539 ft 27 kts 327°
2026-05-01 12:30 19.13797 -155.56898 1627 ft 52 kts 307°
2026-05-01 12:30 19.14082 -155.57187 1749 ft 57 kts 330°
2026-05-01 12:31 19.14285 -155.57331 1750 ft 9 kts 359°
2026-05-01 12:31 19.14298 -155.57314 2527 ft 16 kts 41°
2026-05-01 12:31 19.14410 -155.57239 1769 ft 2 kts 187°
2026-05-01 12:31 19.14290 -155.57409 1784 ft 53 kts 243°
2026-05-01 12:32 19.14196 -155.57583 1793 ft 0 kts 219°
2026-05-01 12:32 19.13821 -155.57632 1819 ft 58 kts 156°
2026-05-01 12:32 19.13615 -155.57402 1761 ft 54 kts 122°
2026-05-01 12:33 19.13479 -155.57319 1765 ft 18 kts 240°
2026-05-01 12:33 19.13466 -155.57315 1768 ft 22 kts 30°
2026-05-01 12:33 19.13804 -155.57084 1765 ft 84 kts 37°
2026-05-01 12:33 19.14131 -155.56484 1947 ft 124 kts 73°
2026-05-01 12:34 19.14680 -155.55647 2248 ft 150 kts 33°
2026-05-01 12:34 19.15536 -155.54901 2579 ft 169 kts 41°
2026-05-01 12:34 19.16324 -155.53917 2955 ft 181 kts 58°
2026-05-01 12:34 19.17357 -155.53089 3080 ft 203 kts 19°
2026-05-01 12:35 19.18727 -155.52433 3030 ft 227 kts 32°
2026-05-01 12:35 19.20039 -155.51447 3017 ft 240 kts 37°
2026-05-01 12:35 19.21386 -155.50355 3011 ft 247 kts 37°
2026-05-01 12:35 19.22751 -155.49221 3009 ft 250 kts 38°
2026-05-01 12:36 19.24125 -155.48068 3005 ft 253 kts 38°
2026-05-01 12:36 19.25506 -155.46904 3005 ft 253 kts 38°
2026-05-01 12:36 19.26885 -155.45745 3003 ft 252 kts 38°
2026-05-01 12:36 19.28237 -155.44588 3004 ft 253 kts 38°
2026-05-01 12:37 19.29610 -155.43422 3004 ft 253 kts 38°
2026-05-01 12:37 19.30982 -155.42260 3004 ft 252 kts 38°
2026-05-01 12:37 19.32358 -155.41101 3002 ft 252 kts 38°
2026-05-01 12:37 19.33730 -155.39943 3002 ft 252 kts 38°
2026-05-01 12:38 19.35083 -155.38804 3002 ft 251 kts 38°
2026-05-01 12:38 19.36439 -155.37660 3326 ft 231 kts 40°
2026-05-01 12:38 19.37629 -155.36512 3435 ft 246 kts 45°
2026-05-01 12:38 19.38904 -155.35300 3502 ft 247 kts 39°
2026-05-01 12:39 19.40257 -155.34155 3513 ft 249 kts 38°
2026-05-01 12:39 19.41560 -155.33023 3888 ft 240 kts 41°
2026-05-01 12:39 19.42710 -155.31782 4152 ft 239 kts 49°
2026-05-01 12:39 19.43687 -155.30349 4361 ft 241 kts 59°
2026-05-01 12:40 19.44465 -155.28739 4352 ft 249 kts 63°
2026-05-01 12:40 19.45374 -155.27149 4290 ft 254 kts 59°
2026-05-01 12:40 19.46245 -155.25559 4434 ft 249 kts 57°
2026-05-01 12:40 19.47394 -155.24192 4499 ft 251 kts 34°
2026-05-01 12:41 19.48966 -155.23395 4475 ft 249 kts 22°
2026-05-01 12:41 19.50506 -155.22620 4333 ft 244 kts 27°
2026-05-01 12:41 19.52018 -155.21761 4012 ft 247 kts 28°
2026-05-01 12:41 19.53499 -155.20895 3725 ft 246 kts 28°
2026-05-01 12:42 19.54998 -155.20012 3429 ft 246 kts 29°
2026-05-01 12:42 19.56457 -155.19115 3334 ft 240 kts 30°
2026-05-01 12:42 19.57886 -155.18202 3124 ft 240 kts 31°
2026-05-01 12:42 19.59315 -155.17270 2872 ft 241 kts 31°
2026-05-01 12:43 19.60720 -155.16311 2706 ft 238 kts 33°
2026-05-01 12:43 19.62124 -155.15359 2423 ft 241 kts 31°
2026-05-01 12:43 19.63531 -155.14459 2240 ft 238 kts 30°
2026-05-01 12:43 19.64949 -155.13571 2124 ft 235 kts 30°
2026-05-01 12:44 19.66362 -155.12732 2038 ft 233 kts 28°
2026-05-01 12:44 19.67752 -155.11921 2039 ft 207 kts 28°
2026-05-01 12:44 19.70037 -155.10550 1619 ft 188 kts 30°
2026-05-01 12:45 19.71863 -155.08595 657 ft 183 kts 66°
2026-05-01 12:45 19.72142 -155.07415 332 ft 152 kts 85°
2026-05-01 12:45 19.72160 -155.06351 125 ft 132 kts 91°
2026-05-01 12:46 19.72152 -155.05414 35 ft 114 kts 90°
2026-05-01 12:46 19.72143 -155.04935 33 ft 12 kts 123°